sat.trackr.live / text

‹ back to catalog

DMC3-FM2

NORAD 40716 · 2015-032B

PAYLOAD ACTIVE UNKNOWN

§ Identity

Operator
Country
UK
Launch date
2015-07-10
Launch site
SRILR
Launch vehicle
Mass (kg)
RCS (m²)
1.51

Purposes: earth_obs

External: N2YO · Heavens-Above · Gunter

§ Orbital elements

Epoch: 2026-05-25T04:39:42.114816Z

Period
96.92 min
Inclination
97.6546°
Eccentricity
0.0007195
Mean motion
14.85714519 rev/d
Perigee alt
606.3 km
Apogee alt
616.4 km
Semi-major
6,989.5 km
B*
1.2986e-4
RAAN
12.8254°
Arg perigee
125.0167°
Mean anomaly
235.1725°
Rev number
58,649

§ Raw data

DMC3-FM21 40716U 15032B   26145.19423744  .00001076  00000+0  12986-3 0  99932 40716  97.6546  12.8254 0007195 125.0167 235.1725 14.85714519586495

JSON: /api/v1/satellites/40716 · /tle

For live sub-satellite position, see the globe view (requires WebGL).

§ Visibility from observer

Set your observer location to see the next 7 days of passes ≥ 10°. The values pass through the URL so the page stays shareable.

No JS? Fill the form by hand. The geolocation button needs JavaScript.

§ Radio — SatNOGS DB

ModeDescriptionDownlinkUplink
FM Mode X (375MHz) 8.213 GHz
BPSK Telemetry 2.233 GHz

2 transmitters · refreshed weekly from db.satnogs.org